sat.trackr.live / text

‹ back to catalog

STARLINK-35780

NORAD 66974 · 2025-288R

PAYLOAD ACTIVE UNKNOWN

§ Identity

Operator
Country
US
Launch date
2025-12-08
Launch site
AFETR
Launch vehicle
Mass (kg)
RCS (m²)

Purposes: comms

External: N2YO · Heavens-Above · Gunter

§ Orbital elements

Epoch: 2026-09-20T08:30:15.526368Z

Period
94.27 min
Inclination
43.0006°
Eccentricity
0.0001765
Mean motion
15.27587354 rev/d
Perigee alt
481.8 km
Apogee alt
484.2 km
Semi-major
6,861.2 km
B*
2.9313e-4
RAAN
3.6762°
Arg perigee
283.7562°
Mean anomaly
76.3093°
Rev number
4,506

§ Raw data

STARLINK-357801 66974U 25288R   26263.35434637  .00007815  00000+0  29313-3 0  99922 66974  43.0006   3.6762 0001765 283.7562  76.3093 15.27587354 45063

JSON: /api/v1/satellites/66974 · /tle

For live sub-satellite position, see the globe view (requires WebGL).

§ Visibility from observer

Set your observer location to see the next 7 days of passes ≥ 10°. The values pass through the URL so the page stays shareable.

No JS? Fill the form by hand. The geolocation button needs JavaScript.